WODKAN Weather Reports


time (UTC)temp
C
wind
direction
speed
KPH
gust
KPH
rain 1hr
cm
rain 24hr
cm
rain mn
cm
humidity
%
barometer
mb
20260503072347 20 211 4.8 11.3 0.00 0.00 0.00 45 1016.9
20260503071826 20 227 3.2 12.9 0.00 0.00 0.00 46 1016.9
20260503071348 20 215 6.4 12.9 0.00 0.00 0.00 45 1016.9
20260503070827 20 188 3.2 11.3 0.00 0.00 0.00 44 1016.8
20260503070332 20 198 4.8 11.3 0.00 0.00 0.00 44 1016.8
20260503060329 17 160 0.0 6.4 0.00 0.00 0.00 52 1016.7
20260503054837 16 200 1.6 9.7 0.00 0.00 0.00 55 1016.7
20260503054400 16 209 3.2 9.7 0.00 0.00 0.00 54 1016.8
20260503053838 16 209 3.2 8.0 0.00 0.00 0.00 55 1016.9
20260503053329 16 207 1.6 8.0 0.00 0.00 0.00 56 1016.9
20260503052832 15 203 3.2 8.0 0.00 0.00 0.00 57 1017.0
20260503052336 15 194 3.2 8.0 0.00 0.00 0.00 58 1017.0
20260503051836 15 198 1.6 11.3 0.00 0.00 0.00 59 1017.1
20260503051334 14 211 3.2 11.3 0.00 0.00 0.00 60 1017.1
20260503050834 13 196 3.2 12.9 0.00 0.00 0.00 62 1017.1
20260503050335 13 193 3.2 12.9 0.00 0.00 0.00 66 1017.1
20260503045847 12 174 1.6 11.3 0.00 0.00 0.00 69 1017.1
20260503045348 11 193 0.0 4.8 0.00 0.00 0.00 72 1017.2
20260503044827 11 208 0.0 6.4 0.00 0.00 0.00 74 1017.2
20260503044331 10 208 1.6 6.4 0.00 0.00 0.00 76 1017.2
20260503043830 10 252 0.0 0.0 0.00 0.00 0.00 78 1017.2
20260503043334 9 252 0.0 0.0 0.00 0.00 0.00 80 1017.3
20260503042837 8 252 0.0 1.6 0.00 0.00 0.00 82 1017.3
20260503042339 8 252 0.0 1.6 0.00 0.00 0.00 82 1017.3
20260503041839 7 252 0.0 0.0 0.00 0.00 0.00 82 1017.4
20260503041337 7 252 0.0 0.0 0.00 0.00 0.00 82 1017.4
20260503040837 7 252 0.0 0.0 0.00 0.00 0.00 82 1017.4
20260503040339 6 252 0.0 0.0 0.00 0.00 0.00 82 1017.4
20260503035853 6 252 0.0 0.0 0.00 0.00 0.00 81 1017.4
20260503035337 6 252 0.0 0.0 0.00 0.00 0.00 81 1017.5
20260503034856 6 252 0.0 0.0 0.00 0.00 0.00 80 1017.5
20260503034339 6 252 0.0 0.0 0.00 0.00 0.00 80 1017.5
20260503033900 6 252 0.0 0.0 0.00 0.00 0.00 80 1017.5
20260503033359 6 252 0.0 0.0 0.00 0.00 0.00 80 1017.5
20260503032838 6 252 0.0 0.0 0.00 0.00 0.00 80 1017.5
20260503032338 6 252 0.0 0.0 0.00 0.00 0.00 80 1017.5
20260503031858 5 252 0.0 0.0 0.00 0.00 0.00 80 1017.5
20260503031339 6 252 0.0 0.0 0.00 0.00 0.00 80 1017.4
20260503030839 6 252 0.0 0.0 0.00 0.00 0.00 80 1017.4
20260503030345 6 252 0.0 0.0 0.00 0.00 0.00 80 1017.4
20260503025856 6 252 0.0 0.0 0.00 0.00 0.00 79 1017.5
20260503025335 6 252 0.0 0.0 0.00 0.00 0.00 79 1017.4
20260503024837 6 252 0.0 0.0 0.00 0.00 0.00 79 1017.4
20260503024359 6 252 0.0 0.0 0.00 0.00 0.00 79 1017.4
20260503023837 6 252 0.0 0.0 0.00 0.00 0.00 79 1017.4
20260503023339 6 252 0.0 0.0 0.00 0.00 0.00 79 1017.4
20260503022858 6 252 0.0 0.0 0.00 0.00 0.00 79 1017.5
20260503022359 6 252 0.0 0.0 0.00 0.00 0.00 79 1017.4
20260503021838 6 252 0.0 0.0 0.00 0.00 0.00 79 1017.5
20260503021400 6 252 0.0 0.0 0.00 0.00 0.00 79 1017.5
20260503020837 6 252 0.0 0.0 0.00 0.00 0.00 79 1017.6
20260503020400 6 252 0.0 0.0 0.00 0.00 0.00 79 1017.5
20260503015830 6 252 0.0 0.0 0.00 0.00 0.00 78 1017.5
20260503015329 6 252 0.0 0.0 0.00 0.00 0.00 78 1017.6
20260503014828 6 252 0.0 0.0 0.00 0.00 0.00 78 1017.6
20260503014351 6 252 0.0 0.0 0.00 0.00 0.00 78 1017.6
20260503013853 6 252 0.0 0.0 0.00 0.00 0.00 78 1017.6
20260503013354 7 252 0.0 0.0 0.00 0.00 0.00 78 1017.6
20260503012836 7 252 0.0 0.0 0.00 0.00 0.00 78 1017.6
20260503012337 7 252 0.0 0.0 0.00 0.00 0.00 78 1017.6
20260503011856 7 252 0.0 0.0 0.00 0.00 0.00 78 1017.6
20260503011359 7 252 0.0 0.0 0.00 0.00 0.00 78 1017.6
20260503010825 7 252 0.0 0.0 0.00 0.00 0.00 78 1017.7
20260503010329 7 252 0.0 0.0 0.00 0.00 0.00 78 1017.6
20260503005904 7 252 0.0 0.0 0.00 0.00 0.00 78 1017.7
20260503005342 7 252 0.0 0.0 0.00 0.00 0.00 78 1017.6
20260503004845 7 252 0.0 0.0 0.00 0.00 0.00 77 1017.6
20260503004406 7 252 0.0 0.0 0.00 0.00 0.00 77 1017.6
20260503003843 7 252 0.0 0.0 0.00 0.00 0.00 77 1017.6
20260503003345 7 252 0.0 0.0 0.00 0.00 0.00 77 1017.7
20260503002844 7 252 0.0 0.0 0.00 0.00 0.00 76 1017.6
20260503002326 7 252 0.0 0.0 0.00 0.00 0.00 76 1017.7
20260503001849 8 252 0.0 0.0 0.00 0.00 0.00 76 1017.7
20260503001330 8 252 0.0 0.0 0.00 0.00 0.00 76 1017.7
20260503000830 8 252 0.0 0.0 0.00 0.00 0.00 76 1017.7
20260503000334 8 252 0.0 0.0 0.00 0.00 0.00 76 1017.8
20260502235827 8 252 0.0 0.0 0.00 0.00 0.00 76 1017.7
20260502235329 8 252 0.0 0.0 0.00 0.00 0.00 76 1017.7
20260502234849 8 252 0.0 0.0 0.00 0.00 0.00 76 1017.9
20260502234350 8 252 0.0 0.0 0.00 0.00 0.00 76 1017.9
20260502233831 8 252 0.0 0.0 0.00 0.00 0.00 76 1017.8
20260502233336 8 252 0.0 0.0 0.00 0.00 0.00 75 1017.8
20260502232857 8 252 0.0 0.0 0.00 0.00 0.00 75 1017.7
20260502232337 9 252 0.0 0.0 0.00 0.00 0.00 76 1017.7
20260502231837 9 252 0.0 0.0 0.00 0.00 0.00 76 1017.7
20260502231344 9 252 0.0 0.0 0.00 0.00 0.00 76 1017.8
20260502230846 9 252 0.0 0.0 0.00 0.00 0.00 76 1017.9
20260502230328 9 252 0.0 1.6 0.00 0.00 0.00 75 1017.9
20260502225840 9 252 0.0 0.0 0.00 0.00 0.00 75 1017.9
20260502225401 9 252 0.0 0.0 0.00 0.00 0.00 75 1017.9
20260502224840 9 252 0.0 0.0 0.00 0.00 0.00 75 1017.9
20260502224340 9 252 0.0 0.0 0.00 0.00 0.00 75 1018.0
20260502223840 9 252 0.0 3.2 0.00 0.00 0.00 75 1018.0
20260502223339 9 252 1.6 3.2 0.00 0.00 0.00 75 1018.0
20260502222839 9 252 0.0 0.0 0.00 0.00 0.00 75 1018.0
20260502222338 10 252 0.0 0.0 0.00 0.00 0.00 76 1017.9
20260502221842 10 252 0.0 0.0 0.00 0.00 0.00 75 1018.0
20260502221345 10 252 0.0 0.0 0.00 0.00 0.00 75 1017.9
20260502220828 10 252 0.0 0.0 0.00 0.00 0.00 75 1018.0
20260502220330 10 252 0.0 0.0 0.00 0.00 0.00 75 1018.1
20260502215900 10 252 0.0 0.0 0.00 0.00 0.00 75 1018.1
20260502215359 10 252 0.0 0.0 0.00 0.00 0.00 75 1018.1
20260502214838 10 252 0.0 0.0 0.00 0.00 0.00 75 1018.2
20260502214343 10 252 0.0 0.0 0.00 0.00 0.00 75 1018.2
20260502213843 10 252 0.0 0.0 0.00 0.00 0.00 75 1018.2
20260502213340 10 252 0.0 0.0 0.00 0.00 0.00 74 1018.3
20260502212840 10 252 0.0 0.0 0.00 0.00 0.00 74 1018.2
20260502212342 10 252 0.0 0.0 0.00 0.00 0.00 74 1018.2
20260502211844 10 252 0.0 0.0 0.00 0.00 0.00 74 1018.2
20260502211343 11 252 0.0 0.0 0.00 0.00 0.00 73 1018.3
20260502210842 11 252 0.0 0.0 0.00 0.00 0.00 73 1018.2
20260502210328 11 252 0.0 0.0 0.00 0.00 0.00 73 1018.3
20260502205842 11 252 0.0 0.0 0.00 0.00 0.00 73 1018.3
20260502205328 11 252 0.0 0.0 0.00 0.00 0.00 72 1018.3
20260502204831 11 252 0.0 0.0 0.00 0.00 0.00 72 1018.3
20260502204336 11 252 0.0 0.0 0.00 0.00 0.00 72 1018.4
20260502203839 11 252 0.0 0.0 0.00 0.00 0.00 72 1018.4
20260502203338 11 252 0.0 0.0 0.00 0.00 0.00 71 1018.3
20260502202838 12 252 0.0 0.0 0.00 0.00 0.00 71 1018.3
20260502202340 12 252 0.0 0.0 0.00 0.00 0.00 71 1018.3
20260502201840 12 252 0.0 0.0 0.00 0.00 0.00 71 1018.3
20260502201342 12 252 0.0 0.0 0.00 0.00 0.00 71 1018.4
20260502200904 12 252 0.0 0.0 0.00 0.00 0.00 70 1018.4
20260502200346 12 252 0.0 0.0 0.00 0.00 0.00 70 1018.5
20260502195824 12 252 0.0 0.0 0.00 0.00 0.00 70 1018.5
20260502195351 12 252 0.0 0.0 0.00 0.00 0.00 69 1018.5
20260502194829 12 252 0.0 0.0 0.00 0.00 0.00 69 1018.5
20260502194331 13 252 0.0 0.0 0.00 0.00 0.00 69 1018.4
20260502193853 13 252 0.0 0.0 0.00 0.00 0.00 69 1018.5
20260502193353 13 252 0.0 0.0 0.00 0.00 0.00 67 1018.5
20260502192832 13 252 0.0 0.0 0.00 0.00 0.00 65 1018.5
20260502192340 13 252 0.0 0.0 0.00 0.00 0.00 64 1018.5
20260502191840 13 252 0.0 0.0 0.00 0.00 0.00 63 1018.6
20260502191359 14 252 0.0 0.0 0.00 0.00 0.00 63 1018.5
20260502190838 14 252 0.0 0.0 0.00 0.00 0.00 62 1018.5
20260502190339 15 252 0.0 0.0 0.00 0.00 0.00 60 1018.5
20260502185849 15 252 0.0 0.0 0.00 0.00 0.00 60 1018.6
20260502185408 15 252 0.0 0.0 0.00 0.00 0.00 59 1018.6
20260502184846 16 252 0.0 0.0 0.00 0.00 0.00 58 1018.6
20260502184406 16 252 0.0 0.0 0.00 0.00 0.00 57 1018.5
20260502183827 16 252 0.0 0.0 0.00 0.00 0.00 56 1018.5
20260502183331 17 252 0.0 0.0 0.00 0.00 0.00 54 1018.5
20260502182345 18 252 0.0 0.0 0.00 0.00 0.00 49 1018.5
20260502181844 18 252 0.0 0.0 0.00 0.00 0.00 48 1018.5
20260502181344 19 252 0.0 0.0 0.00 0.00 0.00 46 1018.5
20260502180830 20 252 0.0 1.6 0.00 0.00 0.00 46 1018.4
20260502180331 21 252 0.0 1.6 0.00 0.00 0.00 44 1018.4
20260502170334 24 252 0.0 1.6 0.00 0.00 0.00 35 1018.5
20260502164335 24 252 3.2 6.4 0.00 0.00 0.00 32 1018.6
20260502163838 24 244 0.0 6.4 0.00 0.00 0.00 31 1018.6
20260502163356 25 244 3.2 6.4 0.00 0.00 0.00 31 1018.6
20260502162834 25 205 1.6 4.8 0.00 0.00 0.00 31 1018.7
20260502162355 25 205 1.6 4.8 0.00 0.00 0.00 30 1018.7
20260502161834 25 205 1.6 4.8 0.00 0.00 0.00 31 1018.8
20260502161337 25 204 0.0 4.8 0.00 0.00 0.00 30 1018.8
20260502160856 25 219 1.6 4.8 0.00 0.00 0.00 30 1018.9
20260502160338 25 219 1.6 6.4 0.00 0.00 0.00 30 1018.9
20260502152329 25 273 6.4 12.9 0.00 0.00 0.00 32 1019.4
20260502151848 25 224 1.6 6.4 0.00 0.00 0.00 30 1019.5
20260502151329 25 224 1.6 8.0 0.00 0.00 0.00 30 1019.5
20260502150828 25 224 3.2 8.0 0.00 0.00 0.00 31 1019.6
20260502150331 25 219 1.6 4.8 0.00 0.00 0.00 31 1019.6
20260502130338 24 277 1.6 8.0 0.00 0.00 0.00 34 1020.9
20260502123335 24 234 3.2 11.3 0.00 0.00 0.00 33 1021.2
20260502122835 24 279 3.2 11.3 0.00 0.00 0.00 33 1021.3
20260502122355 24 240 4.8 11.3 0.00 0.00 0.00 37 1021.3
20260502121833 23 253 1.6 8.0 0.00 0.00 0.00 34 1021.3
20260502121339 23 232 1.6 11.3 0.00 0.00 0.00 35 1021.3
20260502120838 23 22 6.4 11.3 0.00 0.00 0.00 34 1021.5
20260502120325 23 202 3.2 6.4 0.00 0.00 0.00 35 1021.6
20260502115839 23 278 3.2 9.7 0.00 0.00 0.00 35 1021.7
20260502115401 23 277 3.2 12.9 0.00 0.00 0.00 35 1021.7
20260502114900 23 265 4.8 12.9 0.00 0.00 0.00 35 1021.7
20260502114341 23 309 3.2 12.9 0.00 0.00 0.00 36 1021.8
20260502113840 23 265 8.0 14.5 0.00 0.00 0.00 35 1021.9
20260502113337 23 300 4.8 8.0 0.00 0.00 0.00 35 1021.9
20260502112835 23 172 1.6 8.0 0.00 0.00 0.00 35 1022.0
20260502112334 23 219 3.2 8.0 0.00 0.00 0.00 36 1022.1
20260502111858 23 248 3.2 8.0 0.00 0.00 0.00 36 1022.0
20260502111336 23 242 1.6 14.5 0.00 0.00 0.00 36 1022.2
20260502110839 23 270 4.8 14.5 0.00 0.00 0.00 36 1022.2
20260502110339 23 273 4.8 12.9 0.00 0.00 0.00 37 1022.3
20260502105852 23 174 1.6 8.0 0.00 0.00 0.00 36 1022.3
20260502105328 23 188 1.6 6.4 0.00 0.00 0.00 36 1022.4
20260502104831 22 221 1.6 11.3 0.00 0.00 0.00 37 1022.4
20260502104356 22 211 3.2 11.3 0.00 0.00 0.00 36 1022.5
20260502103838 22 183 3.2 11.3 0.00 0.00 0.00 36 1022.6
20260502103345 22 242 4.8 11.3 0.00 0.00 0.00 36 1022.6
20260502102827 22 203 6.4 11.3 0.00 0.00 0.00 37 1022.7
20260502102348 22 134 0.0 4.8 0.00 0.00 0.00 37 1022.7
20260502101332 22 190 3.2 9.7 0.00 0.00 0.00 37 1022.8
20260502100831 22 246 3.2 9.7 0.00 0.00 0.00 38 1022.9
20260502100405 22 167 1.6 11.3 0.00 0.00 0.00 39 1022.9
20260502091346 21 261 3.2 16.1 0.00 0.00 0.00 40 1023.2
20260502090845 21 245 6.4 16.1 0.00 0.00 0.00 39 1023.2
20260502090324 21 240 6.4 12.9 0.00 0.00 0.00 39 1023.3